Preview of NWS' New Version of Forecast
This preview is not operational and should not be used for support decisions.

Terminal Aerodrome Forecast (TAF)

Issued by National Weather Service (NWS)

                            
000
FTUS42 KKEY 222333
TAFEYW
TAF
KEYW 222333Z 2300/2324 11008KT P6SM BKN250
     FM230600 VRB05KT P6SM BKN250
     FM231300 14007KT P6SM BKN250=